Regional Weather Roundup
Issued by NWS Sioux Falls, SD

Home | Current Version | Previous Version | Text Only | Print | Product List | Glossary Off
Versions: 1 2 3 4 5 6 7 8 9 10 11 12 13 14 15 16 17 18 19 20 21 22 23 24 25 26 27 28 29 30 31 32 33 34 35 36 37 38 39 40 41 42 43 44 45 46 47 48 49 50

000
ASUS43 KFSD 270802
RWRFSD

WEATHER ROUNDUP FOR SE SOUTH DAKOTA/SW MINNESOTA/NW IOWA
NATIONAL WEATHER SERVICE SIOUX FALLS SD
200 AM CST THU NOV 27 2014

NOTE: "FAIR" INDICATES FEW OR NO CLOUDS BELOW 12,000 FEET WITH NO
SIGNIFICANT WEATHER AND OR OBSTRUCTIONS TO VISIBILITY.


SDZ038>040-050-052>070-270900-
SOUTHEAST SOUTH DAKOTA

CITY           SKY/WX    TMP DP  RH WIND       PRES   REMARKS
CHAMBERLAIN    NOT AVBL
HURON          MOCLDY    -5  -9  83 NW5       30.52S WCI -16
MADISON        FAIR      -4  -9  77 N7        30.46R WCI -18
MITCHELL       CLOUDY     7   0  73 N7        30.53S WCI  -5
SIOUX FALLS    PTCLDY     0  -7  72 NW5       30.50R WCI -10
WINNER         CLOUDY    17   8  67 E10       30.40F WCI   5
YANKTON        CLOUDY    12   5  73 N9        30.52S WCI   0
$$

MNZ071-072-080-081-089-090-097-098-270900-
SOUTHWEST MINNESOTA

CITY           SKY/WX    TMP DP  RH WIND       PRES   REMARKS
FAIRMONT       PTCLDY     0  -8  71 NW18      30.43S WCI -22
JACKSON        PTCLDY     0  -8  71 NW18      30.44S WCI -22
LUVERNE        PTCLDY     3  -8  60 N6        30.49R WCI  -8
MARSHALL       PTCLDY    -4  -9  77 NW13      30.49R WCI -23
MONTEVIDEO     PTCLDY    -6  -9  84 N7        30.53R WCI -20
PIPESTONE      CLEAR     -2  -8  78 N7        30.44R WCI -16
REDWOOD FALLS  PTCLDY    -3  -8  79 NW9       30.51R WCI -19
TRACY          PTCLDY    -3  -8  81 NW10      30.48S WCI -20
WINDOM         PTCLDY    -2  -8  78 NW14      30.45R WCI -21
WORTHINGTON    PTCLDY    -2  -9  71 N12       30.44R WCI -20
$$

IAZ001>003-012>014-020>022-031-032-NEZ013-014-SDZ071-270900-
NORTHWEST IOWA

CITY           SKY/WX    TMP DP  RH WIND       PRES   REMARKS
DENISON        PTCLDY    10   5  79 CALM      30.44S
ESTHERVILLE    CLEAR     -1  -7  75 NW16      30.44R WCI -21
SIOUX CITY     PTCLDY    15   9  76 NW9       30.50R WCI   3
SPENCER        PTCLDY    -2  -9  72 NW10      30.46R WCI -19
$$

ABBREVIATIONS USED IN REMARKS
   TC - TEMPERATURE IN CELSIUS
  WCI - WIND CHILL INDEX
   HX - HEAT INDEX
  VSB - VISIBILITY




USA.gov is the U.S. government's official web portal to all federal, state and local government web resources and services.